Preview of NWS' New Version of Forecast
This preview is not operational and should not be used for support decisions.

Regional Weather Roundup (RWR)

Issued by National Weather Service (NWS)

                            
000
ASUS45 KBOI 211010
RWRID 

IDAHO REGIONAL WEATHER ROUNDUP
NATIONAL WEATHER SERVICE BOISE ID
400 AM MDT SAT SEP 21 2019

NOTE: "FAIR" INDICATES FEW OR NO CLOUDS BELOW 12000 FEET
WITH NO SIGNIFICANT WEATHER AND/OR OBSTRUCTIONS TO VISIBILITY

IDZ012-014-211100-
SOUTHWEST IDAHO

  
CITY           SKY/WX    TMP DP  RH WIND       PRES   REMARKS
BOISE          CLOUDY    48  42  80 CALM      30.10S                  
CALDWELL       PTCLDY    49  44  83 W3        30.11R                  
MOUNTAIN HOME  CLEAR     43  43 100 NW5       30.11R                  
$$

IDZ016-017-211100-
SOUTHCENTRAL IDAHO

  
CITY           SKY/WX    TMP DP  RH WIND       PRES   REMARKS
BURLEY         PTCLDY    48  38  68 W9        30.11R                  
JEROME         CLEAR     44  39  82 SW6       30.11R                  
TWIN FALLS     CLEAR     45  38  76 SW14      30.12R                  
$$

IDZ019>023-211100-
SOUTHEAST IDAHO

  
CITY           SKY/WX    TMP DP  RH WIND       PRES   REMARKS
IDAHO FALLS    MOCLDY    45  42  89 S3        30.12R                  
POCATELLO      CLOUDY    47  40  76 SW10      30.12R                  
REXBURG        CLOUDY    44  42  93 CALM      30.11R                  
$$

IDZ006-010-011-018-031-032-211100-
CENTRAL IDAHO MOUNTAINS

  
CITY           SKY/WX    TMP DP  RH WIND       PRES   REMARKS
MCCALL         CLEAR     40  36  86 CALM      30.12R                  
HAILEY         PTCLDY    37  36  93 NW8       30.14S WCI  31          
STANLEY          N/A     34  31  88 CALM      30.17S                  
SALMON         CLOUDY    47  43  86 CALM      30.11R                  
CHALLIS        CLOUDY    44  36  73 S5        30.12S                  
$$

IDZ002-004-006-007-026-211100-
NORTHERN IDAHO

  
CITY           SKY/WX    TMP DP  RH WIND       PRES   REMARKS
LEWISTON       CLOUDY    57  49  74 CALM      30.08R                  
LOWELL           N/A     54  53  97 CALM      30.11S                  
COEUR D'ALENE  FOG       46  45  96 CALM      30.07S VSB 1/4          
MULLAN PASS    FOG       41  40  96 NW5       30.11R VSB 1/4          
$$